Weather in Baltimore

United States     39°17′24″N   76°36′45″W
temp.,
°C
wind,
m/s
gust,
m/s
humid.,
%
clouds,
%
prec.,
mm/h
press.,
hPa
HPBL,
m
17 september, fri
fri1723:00+22ene4689100 0.0 1022365
02:00+22ne4691100 0.0 1021319
05:00+22ne4792100 0.0 1021402
08:00+22ne479095 0.0 1022410
11:00+25ne567458 0.0 1022709
14:00+27ene446489 0.0 1021995
17:00+25ne457446 2.2 1019634
20:00+24ne358267 2.8 1019318
18 september, sat
sat1823:00+23ene238619 0.2 1019175
02:00+22n12870 0.2 1018124
05:00+21n23890 0.0 1019125
08:00+21n12850 0.0 1019175
11:00+26n12650 0.0 1019699
14:00+28e135823 0.0 10171146
17:00+28nne145839 0.4 1016808
20:00+26wsw11680 0.8 101726
19 september, sun
sun1923:00+25wsw12703 0.0 101839
02:00+23n23740 0.0 1019115
05:00+22nne36750 0.0 1020237
08:00+21nne47744 0.0 1021311
11:00+25nne44509 0.0 1023815
14:00+27ne344217 0.0 10211045
17:00+27ne33455 0.0 1020889
20:00+24ne355812 0.0 1022215
20 september, mon
mon2023:00+22ene346230 0.0 1023168
02:00+20e2369100 0.0 1024193
05:00+20ese2371100 0.0 1024205
08:00+20e346995 0.0 1025269
11:00+23ese345790 0.0 1026647
14:00+25se3446100 0.0 1025922
17:00+25ese3553100 0.0 1024586
20:00+23se6866100 0.0 1025687
21 september, tue
tue2123:00+21se5872100 0.0 1026607
02:00+21se5875100 0.0 1025583
05:00+20se467996 0.0 1025461
08:00+20se4678100 0.0 1025469
11:00+23se5569100 0.0 1025854
14:00+25sse4559100 0.0 10241085
17:00+25sse4658100 0.0 1022784
20:00+23s4767100 0.0 1021481